CT1AKV-10 Estrada Real PT current weather conditions

sailwx.info

Air temperature 12.8° C
Dewpoint -18.1° C

Last reported at 2017-Mar-28 20:45 UTC.
Time now 2017-Mar-28 21:51 UTC

Location: N 39°11' W 008°44'.
View on Google Maps.

See reports from other nearby stations

  
Tides and Currents Weather Stations Pressure Air Temp Water Temp Dewpoint Dewpoint Depression Visibility Wind Speed Wind Dir Waves Ship Positions
date/time (UTC)wind fromknots sea level pressurealtimeterstation pressurevisibilityair tempwater tempwave heightnotes
2017-Mar-28 20:45 12.8
2017-Mar-28 20:30 227 13.3
2017-Mar-28 20:15 315 14.4
2017-Mar-28 20:00 339 14.4
2017-Mar-28 19:45 223 14.4
2017-Mar-28 19:30 196 0 gusting 2 15.0
2017-Mar-28 19:15 221 0 gusting 2 15.0
2017-Mar-28 19:00 214 0 gusting 2 15.6
2017-Mar-28 18:45 256 0 gusting 2 16.7
2017-Mar-28 18:30 230 0 gusting 2 17.8
2017-Mar-28 18:15 191 0 gusting 5 19.4
2017-Mar-28 18:00 218 0 gusting 5 21.1
2017-Mar-28 17:45 174 1 gusting 6 21.7
2017-Mar-28 17:30 247 1 gusting 6 22.8
2017-Mar-28 17:15 226 1 gusting 6 22.8
2017-Mar-28 17:00 225 1 gusting 7 24.4
2017-Mar-28 16:45 185 2 gusting 6 23.9
2017-Mar-28 16:30 188 1 gusting 6 23.9
2017-Mar-28 16:15 179 1 gusting 5 25.0
2017-Mar-28 16:00 161 1 gusting 6 25.0
2017-Mar-28 15:45 201 1 gusting 6 25.0
2017-Mar-28 15:30 229 1 gusting 6 25.0
2017-Mar-28 15:15 122 1 gusting 6 25.6
2017-Mar-28 15:00 186 2 gusting 6 24.4
2017-Mar-28 14:45 159 2 gusting 8 24.4
2017-Mar-28 14:30 171 2 gusting 8 23.9
2017-Mar-28 14:15 130 2 gusting 7 23.3
2017-Mar-28 14:00 155 1 gusting 6 24.4
2017-Mar-28 13:45 183 2 gusting 7 24.4
2017-Mar-28 13:30 162 1 gusting 6 23.9
2017-Mar-28 13:15 118 0 gusting 4 25.6
2017-Mar-28 13:00 118 0 gusting 6 25.6
2017-Mar-28 12:45 142 1 gusting 6 26.1
2017-Mar-28 12:30 030 1 gusting 3 27.8
2017-Mar-28 12:15 139 0 gusting 3 26.1
2017-Mar-28 12:00 121 0 gusting 6 24.4
2017-Mar-28 11:45 084 0 gusting 4 22.2
2017-Mar-28 11:30 062 1 gusting 5 20.0
2017-Mar-28 11:15 070 1 gusting 4 18.3
2017-Mar-28 11:00 053 1 gusting 5 16.1
2017-Mar-28 10:45 007 1 gusting 3 14.4
2017-Mar-28 10:30 015 0 gusting 3 13.3
2017-Mar-28 10:15 043 0 gusting 3 12.2
2017-Mar-28 10:00 053 0 gusting 3 11.7
2017-Mar-28 09:45 020 1 gusting 4 11.1
2017-Mar-28 09:30 038 1 gusting 5 11.1
2017-Mar-28 09:15 049 0 gusting 3 10.6
2017-Mar-28 09:00 039 0 gusting 3 10.6
2017-Mar-28 08:45 065 10.6
2017-Mar-28 08:30 041 10.0
2017-Mar-28 08:15 049 0 gusting 2 10.0
2017-Mar-28 08:00 066 10.0
2017-Mar-28 07:45 121 10.0
2017-Mar-28 07:30 103 9.4
2017-Mar-28 07:15 089 9.4
2017-Mar-28 07:00 8.9
2017-Mar-28 06:45 8.9
2017-Mar-28 06:30 8.3
2017-Mar-28 06:15 162 8.3
2017-Mar-28 06:00 8.3
2017-Mar-28 05:45 8.3
2017-Mar-28 05:30 8.9
2017-Mar-28 05:15 050 8.9
2017-Mar-28 05:00 8.9
2017-Mar-28 04:45 8.9
2017-Mar-28 04:30 8.9
2017-Mar-28 04:15 8.9
2017-Mar-28 04:00 9.4
2017-Mar-28 03:45 9.4
2017-Mar-28 03:30 10.0
2017-Mar-28 03:15 9.4
2017-Mar-28 03:00 9.4
2017-Mar-28 02:45 9.4
2017-Mar-28 02:30 150 8.9
2017-Mar-28 02:15 099 8.9
2017-Mar-28 02:00 9.4
2017-Mar-28 01:45 9.4
2017-Mar-28 01:30 149 9.4
2017-Mar-28 01:15 10.0
2017-Mar-28 01:00 10.0
2017-Mar-28 00:45 10.0
2017-Mar-28 00:30 10.0
2017-Mar-28 00:15 143 10.0
2017-Mar-28 00:00 150 10.0
2017-Mar-27 23:45 10.0
2017-Mar-27 23:30 120 10.0
2017-Mar-27 23:15 178 10.0
2017-Mar-27 23:00 156 10.6
2017-Mar-27 22:45 198 10.6
2017-Mar-27 22:30 182 0 gusting 2 11.1
2017-Mar-27 22:15 204 0 gusting 2 11.1
2017-Mar-27 22:00 257 0 gusting 3 11.7
2017-Mar-27 21:45 239 0 gusting 4 11.7
2017-Mar-27 21:30 250 0 gusting 2 11.7
2017-Mar-27 21:15 238 1 gusting 3 11.7
2017-Mar-27 21:00 216 1 gusting 3 12.2
2017-Mar-27 20:45 198 1 gusting 4 12.2
2017-Mar-27 20:30 199 0 gusting 3 12.2
2017-Mar-27 20:15 163 0 gusting 3 12.2
2017-Mar-27 20:00 130 12.2
2017-Mar-27 19:45 199 12.8
2017-Mar-27 19:30 237 13.3
2017-Mar-27 19:15 265 13.9
2017-Mar-27 19:00 14.4
2017-Mar-27 18:45 039 15.0
2017-Mar-27 18:30 320 15.6
2017-Mar-27 18:15 262 16.1
2017-Mar-27 18:00 064 0 gusting 5 17.2
2017-Mar-27 17:45 258 0 gusting 3 17.8
2017-Mar-27 17:30 229 1 gusting 6 19.4
2017-Mar-27 17:15 273 1 gusting 6 19.4
2017-Mar-27 17:00 324 1 gusting 5 19.4
2017-Mar-27 16:45 259 1 gusting 7 17.8
2017-Mar-27 16:30 308 1 gusting 7 18.9
2017-Mar-27 16:15 312 2 gusting 8 20.0
2017-Mar-27 16:00 302 3 gusting 11 19.4
2017-Mar-27 15:45 287 4 gusting 11 18.9
2017-Mar-27 15:30 306 3 gusting 11 18.3
2017-Mar-27 15:15 162 1 gusting 5 17.8
2017-Mar-27 15:00 151 0 gusting 2 16.1
2017-Mar-27 14:45 115 0 gusting 6 15.6
2017-Mar-27 14:30 166 0 gusting 4 15.6
2017-Mar-27 14:15 183 0 gusting 3 16.7
2017-Mar-27 14:00 174 1 gusting 5 16.1
2017-Mar-27 13:45 212 3 gusting 9 17.8
2017-Mar-27 13:30 192 2 gusting 6 18.9
2017-Mar-27 13:15 192 2 gusting 12 19.4
2017-Mar-27 13:00 295 3 gusting 13 21.7
2017-Mar-27 12:45 250 2 gusting 8 18.9
2017-Mar-27 12:30 229 3 gusting 12 21.7
2017-Mar-27 12:15 194 3 gusting 9 21.1
2017-Mar-27 12:00 174 2 gusting 7 20.0
2017-Mar-27 11:45 090 0 gusting 3 18.9
2017-Mar-27 11:30 214 0 gusting 3 17.8
2017-Mar-27 11:15 173 1 gusting 3 17.2
2017-Mar-27 11:00 192 0 gusting 3 15.6
2017-Mar-27 10:45 160 15.6
2017-Mar-27 10:30 129 0 gusting 5 14.4
2017-Mar-27 10:15 181 0 gusting 3 13.9
2017-Mar-27 10:00 168 0 gusting 3 12.8
2017-Mar-27 09:45 163 0 gusting 2 12.8
2017-Mar-27 09:30 168 0 gusting 4 12.8
2017-Mar-27 09:15 146 0 gusting 3 12.2
2017-Mar-27 09:00 190 0 gusting 4 11.7
2017-Mar-27 08:45 184 0 gusting 3 11.7
2017-Mar-27 08:30 197 11.7